Location: Navalespino
(40.5894°N, 4.2660°W)
Time: 10:10:12
(UTC+00:00)

Cosmos 1980 Rocket - Pass Details

Date: 18 April 2024
Orbit: 827 x 851 km, 71.0° (Epoch: 20 May)

Event Time Altitude Azimuth Distance (km) Brightness Sun altitude
Exits shadow 23:36:37 25° 312° (NW) 1,613 4.0 -37.3°
Drops below altitude 10° 23:40:52 10° 1° (N) 2,461 5.3 -37.5°
Sets 23:43:46 0° 14° (NNE) 3,404 6.1 -37.6°
